Regional Weather Roundup
Issued by NWS

Home | Current Version | Previous Version | Text Only | Print | Product List | Glossary Off
Versions: 1 2 3 4 5 6 7 8 9 10 11 12 13 14 15 16 17 18 19 20 21 22 23 24 25 26 27 28 29 30 31 32 33 34 35 36 37 38 39 40 41 42 43 44 45 46 47 48 49 50

000
ASUS43 KMKX 031411
RWRWI

WISCONSIN REGIONAL WEATHER ROUNDUP
NATIONAL WEATHER SERVICE MILWAUKEE/SULLIVAN WI
900 AM CDT TUE MAY 03 2016

NOTE: "FAIR" INDICATES FEW OR NO CLOUDS BELOW 12,000 FEET WITH NO
SIGNIFICANT WEATHER AND/OR OBSTRUCTIONS TO VISIBILITY.

WIZ001-002-006>008-014>016-023>028-031500-
NORTHWEST WISCONSIN

CITY           SKY/WX    TMP DP  RH WIND       PRES   REMARKS
SUPERIOR ARPT  CLOUDY    56  37  47 W10       29.78F
ASHLAND        CLOUDY    56  37  49 W12       29.78F
HAYWARD        CLOUDY    55  36  48 W6        29.84F
SIREN          MOSUNNY   57  35  43 W12G20    29.87S
CUMBERLAND     SUNNY     54  37  54 W8        29.87F
RICE LAKE      SUNNY     57  38  49 W7        29.88F
CHETEK         SUNNY     57  42  56 S5        29.87F
LADYSMITH      MOSUNNY   55  40  56 SW7       29.87F
EAU CLAIRE     SUNNY     56  40  55 W9        29.89F
MENOMONIE      SUNNY     58  41  52 SW9       29.90F
NEW RICHMOND   SUNNY     57  41  54 W9        29.89F
OSCEOLA        SUNNY     57  41  54 W6        29.92F
$$

WIZ003>005-009-010-017-018-031500-
NORTH CENTRAL WISCONSIN

CITY           SKY/WX    TMP DP  RH WIND       PRES   REMARKS
MANITOWISH WTR CLOUDY    52  34  51 SW9       29.79F
ARBOR VITAE    CLOUDY    57  34  42 W10       29.81F
WOODRUFF       CLOUDY    57  34  42 W10       29.81F
RHINELANDER    CLOUDY    54  34  46 W12       29.84F
EAGLE RIVER    CLOUDY    52  32  46 W9        29.80F
LAND O LAKES   CLOUDY    55  32  41 W7        29.80F
PHILLIPS       MOSUNNY   54  36  50 W10G16    29.83F
TOMAHAWK       MOSUNNY   58  34  41 SW6G17    29.84F
MEDFORD        SUNNY     54  40  58 W7        29.87F
MERRILL        SUNNY     57  37  48 W9        29.87F
$$

WIZ029-030-035-036-043>047-031500-
CENTRAL WISCONSIN

CITY           SKY/WX    TMP DP  RH WIND       PRES   REMARKS
WAUSAU         SUNNY     59  38  45 W12       29.86F
MOSINEE        SUNNY     57  37  47 W14       29.89F
MARSHFIELD     SUNNY     57  39  51 W10       29.89F
STEVENS POINT  SUNNY     55  37  49 W9        29.89F
WAUPACA        SUNNY     61  37  40 W9        29.90S
WAUTOMA        SUNNY     60  38  43 W13       29.91F
WISC RAPIDS    SUNNY     58  37  45 W8        29.92F
CAMP DOUGLAS   MOSUNNY   61  43  51 W13       29.92F
$$

WIZ011>013-019>022-031-037>040-048>050-031500-
NORTHEAST WISCONSIN

CITY           SKY/WX    TMP DP  RH WIND       PRES   REMARKS
ANTIGO         SUNNY     56  35  44 W14       29.86F
SHAWANO        SUNNY     60  37  42 W8        29.87F
OCONTO         SUNNY     59  37  42 W13G18    29.84F
STURGEON BAY   MOSUNNY   55  36  47 W10       29.87S
GREEN BAY      SUNNY     59  39  47 W10       29.87F
MANITOWOC      SUNNY     58  39  49 MISG      29.88F
APPLETON       MOSUNNY   55  37  50 W12       29.87F
CLINTONVILLE   SUNNY     59  36  41 W13       29.87F
OSHKOSH        SUNNY     58  39  49 W9        29.89F
$$

WIZ032>034-041-042-053>061-031500-
SOUTHWEST WISCONSIN

CITY           SKY/WX    TMP DP  RH WIND       PRES   REMARKS
LA CROSSE      SUNNY     57  41  55 S8        29.94F
SPARTA         SUNNY     55  41  59 W7        29.94F
VIROQUA        SUNNY     55  41  59 W7        29.96S
BOSCOBEL       SUNNY     57  43  59 SW6       29.97F
PRAIRIE DU CHI SUNNY     57  41  55 CALM      29.98F
PLATTEVILLE    SUNNY     54  45  71 W12       29.98S
$$

WIZ056-057-062-063-064-067-068-031500-
SOUTH CENTRAL WISCONSIN

CITY           SKY/WX    TMP DP  RH WIND       PRES   REMARKS
REEDSBURG      SUNNY     57  42  57 W8        29.94S
BARABOO/DELLS  SUNNY     56  40  54 W9        29.94S
LONE ROCK      SUNNY     54  43  66 W7        29.97F
MINERAL POINT  SUNNY     57  43  58 W12       29.97S
MADISON        MOSUNNY   57  41  55 W9        29.94F
MIDDLETON      SUNNY     57  43  59 W12       29.95S
WATERTOWN      SUNNY     55  42  61 W7        29.93F
MONROE         SUNNY     54  41  62 W14G20    29.96F
JANESVILLE     MOSUNNY   55  43  62 W6        29.95F
$$

WIZ051-052-058>065-066-070>072-031500-
SOUTHEAST WISCONSIN

CITY           SKY/WX    TMP DP  RH WIND       PRES   REMARKS
MILWAUKEE      MOSUNNY   57  38  48 SW8       29.94S
WAUKESHA       SUNNY     55  37  50 W7        29.95F
MILWAUKEE/TIMM SUNNY     55  36  47 W8        29.94F
RACINE         MOSUNNY   56  38  50 W7        29.95F
BURLINGTON     SUNNY     57  39  51 W3        29.94F
KENOSHA        MOSUNNY   56  42  59 W8        29.94F
FOND DU LAC    SUNNY     59  42  53 W8        29.91F
SHEBOYGAN      SUNNY     59  40  49 W9        29.90F
WEST BEND      SUNNY     57  37  47 W8        29.91F
JUNEAU         SUNNY     53  41  63 W6        29.94S
$$

LSZ147-162-031500-
LAKE SUPERIOR

STATION/POSITION TIME  TEMP    WIND        PRES    WAVE
                       AIR SEA DIR/SP/G            HT/PER
                 (UTC) (F)     (DEG/KT/KT) (MB)    (FT/S)
W MID LAKE BUOY  1250   41 37  230/ 12/ 14 1006.7F   1/ 3
DEVILS ISLAND    1400   49     240/ 23/ 26 1006.6F
SAXON HARBOR     1300   56     210/ 10/ 15 1007.8
$$

LMZ867-665-643>646-031500-
LAKE MICHIGAN

STATION/POSITION TIME  TEMP    WIND        PRES    WAVE
                       AIR SEA DIR/SP/G            HT/PER
                 (UTC) (F)     (DEG/KT/KT) (MB)    (FT/S)
CHAMBERS ISLAND  1300   49     200/  5/ 11 1010.8F
N MID LAKE BUOY  1250   41 38  200/ 12/ 12 1010.5F   1/ 3
NORTHPORT PIER   1300   52     220/  3/  6 1010.5F
ALGOMA LAKESHORE 1315          280/  9/ 11   N/A
KEWAUNEE LAKESHO 1300   54     260/  7/  9 1010.9F
SHEBOYGAN LAKESH 1400   59     280/ 10/ 11 1012.6F
PORT WASHINGTON  1300   56     270/  7/ 10 1013.9F
S MID LAKE BUOY  1250   42 41  170/  4/  6 1014.5F   0
KENOSHA   LAKESH 1400   56     250/ 10/ 11 1013.9F
$$

TC  - TEMPERATURE IN CELSIUS
VSB - VISIBILITY IN STATUTE MILES
WCI - WIND CHILL INDEX
HX  - HEAT INDEX





USA.gov is the U.S. government's official web portal to all federal, state and local government web resources and services.